Location: Canyam�s
(41.5996°N, 2.4450°E)
Time: 14:48:02
(UTC+00:00)

COSMOS 2487 - Pass Details

Date: 06 June 2020
Orbit: 441 x 444 km, 74.7° (Epoch: 09 July)

Event Time Altitude Azimuth Distance (km) Brightness Sun altitude
Rises 21:30:36 0° 352° (N) 2,451 7.3 -18.1°
Reaches altitude 10° 21:32:54 10° 4° (N) 1,575 5.9 -18.3°
Maximum altitude 21:35:55 28° 65° (ENE) 875 3.7 -18.6°
Enters shadow 21:36:14 27° 76° (ENE) 885 3.7 -18.7°
